Year,Month,Day,Hour,Minute,Value (Times are PST for temperature in C)
2015,06,08,00,00,22.00
2015,06,08,00,01,22.00
2015,06,08,00,02,22.00
2015,06,08,00,03,22.00
2015,06,08,00,04,22.00
2015,06,08,00,05,22.10
2015,06,08,00,06,22.10
2015,06,08,00,07,22.00
2015,06,08,00,08,22.00
2015,06,08,00,09,22.10
2015,06,08,00,10,22.00
2015,06,08,00,11,22.00
2015,06,08,00,12,22.00
2015,06,08,00,13,22.00
2015,06,08,00,14,22.00
2015,06,08,00,15,22.00
2015,06,08,00,16,22.00
2015,06,08,00,17,22.00
2015,06,08,00,18,22.00
2015,06,08,00,19,22.00
2015,06,08,00,20,22.00
2015,06,08,00,21,21.90
2015,06,08,00,22,21.90
2015,06,08,00,23,21.90
2015,06,08,00,24,21.90
2015,06,08,00,25,21.90
2015,06,08,00,26,21.90
2015,06,08,00,27,21.90
2015,06,08,00,28,21.90
2015,06,08,00,29,21.90
2015,06,08,00,30,21.90
2015,06,08,00,31,21.90
2015,06,08,00,32,21.90
2015,06,08,00,33,21.80
2015,06,08,00,34,21.80
2015,06,08,00,35,21.80
2015,06,08,00,36,21.80
2015,06,08,00,37,21.80
2015,06,08,00,38,21.80
2015,06,08,00,39,21.80
2015,06,08,00,40,21.80
2015,06,08,00,41,21.80
2015,06,08,00,42,21.80
2015,06,08,00,43,21.80
2015,06,08,00,44,21.80
2015,06,08,00,45,21.80
2015,06,08,00,46,21.80
2015,06,08,00,47,21.80
2015,06,08,00,48,21.80
2015,06,08,00,49,21.80
2015,06,08,00,50,21.80
2015,06,08,00,51,21.80
2015,06,08,00,52,21.80
2015,06,08,00,53,21.70
2015,06,08,00,54,21.70
2015,06,08,00,55,21.70
2015,06,08,00,56,21.60
2015,06,08,00,57,21.60
2015,06,08,00,58,21.50
2015,06,08,00,59,21.40
2015,06,08,01,00,21.30
2015,06,08,01,01,21.20
2015,06,08,01,02,21.20
2015,06,08,01,03,21.20
2015,06,08,01,04,21.20
2015,06,08,01,05,21.20
2015,06,08,01,06,21.10
2015,06,08,01,07,21.10
2015,06,08,01,08,21.10
2015,06,08,01,09,21.10
2015,06,08,01,10,21.10
2015,06,08,01,11,21.10
2015,06,08,01,12,21.20
2015,06,08,01,13,21.20
2015,06,08,01,14,21.20
2015,06,08,01,15,21.20
2015,06,08,01,16,21.20
2015,06,08,01,17,21.20
2015,06,08,01,18,21.20
2015,06,08,01,19,21.20
2015,06,08,01,20,21.20
2015,06,08,01,21,21.20
2015,06,08,01,22,21.20
2015,06,08,01,23,21.20
2015,06,08,01,24,21.10
2015,06,08,01,25,21.10
2015,06,08,01,26,21.10
2015,06,08,01,27,21.10
2015,06,08,01,28,21.00
2015,06,08,01,29,21.00
2015,06,08,01,30,20.90
2015,06,08,01,31,20.90
2015,06,08,01,32,20.90
2015,06,08,01,33,20.80
2015,06,08,01,34,20.80
2015,06,08,01,35,20.80
2015,06,08,01,36,20.80
2015,06,08,01,37,20.80
2015,06,08,01,38,20.70
2015,06,08,01,39,20.70
2015,06,08,01,40,20.70
2015,06,08,01,41,20.60
2015,06,08,01,42,20.60
2015,06,08,01,43,20.60
2015,06,08,01,44,20.50
2015,06,08,01,45,20.50
2015,06,08,01,46,20.40
2015,06,08,01,47,20.40
2015,06,08,01,48,20.40
2015,06,08,01,49,20.30
2015,06,08,01,50,20.30
2015,06,08,01,51,20.30
2015,06,08,01,52,20.30
2015,06,08,01,53,20.30
2015,06,08,01,54,20.30
2015,06,08,01,55,20.30
2015,06,08,01,56,20.30
2015,06,08,01,57,20.30
2015,06,08,01,58,20.30
2015,06,08,01,59,20.20
2015,06,08,02,00,20.20
2015,06,08,02,01,20.20
2015,06,08,02,02,20.20
2015,06,08,02,03,20.20
2015,06,08,02,04,20.10
2015,06,08,02,05,20.10
2015,06,08,02,06,20.10
2015,06,08,02,07,20.10
2015,06,08,02,08,20.10
2015,06,08,02,09,20.10
2015,06,08,02,10,20.10
2015,06,08,02,11,20.10
2015,06,08,02,12,20.10
2015,06,08,02,13,20.10
2015,06,08,02,14,20.10
2015,06,08,02,15,20.10
2015,06,08,02,16,20.10
2015,06,08,02,17,20.10
2015,06,08,02,18,20.10
2015,06,08,02,19,20.20
2015,06,08,02,20,20.20
2015,06,08,02,21,20.20
2015,06,08,02,22,20.20
2015,06,08,02,23,20.20
2015,06,08,02,24,20.20
2015,06,08,02,25,20.20
2015,06,08,02,26,20.20
2015,06,08,02,27,20.20
2015,06,08,02,28,20.20
2015,06,08,02,29,20.20
2015,06,08,02,30,20.10
2015,06,08,02,31,20.10
2015,06,08,02,32,20.10
2015,06,08,02,33,20.10
2015,06,08,02,34,20.00
2015,06,08,02,35,20.00
2015,06,08,02,36,20.00
2015,06,08,02,37,19.90
2015,06,08,02,38,19.90
2015,06,08,02,39,19.90
2015,06,08,02,40,19.90
2015,06,08,02,41,19.90
2015,06,08,02,42,19.90
2015,06,08,02,43,19.90
2015,06,08,02,44,19.80
2015,06,08,02,45,19.80
2015,06,08,02,46,19.80
2015,06,08,02,47,19.80
2015,06,08,02,48,19.80
2015,06,08,02,49,19.80
2015,06,08,02,50,19.80
2015,06,08,02,51,19.70
2015,06,08,02,52,19.80
2015,06,08,02,53,19.80
2015,06,08,02,54,19.80
2015,06,08,02,55,19.80
2015,06,08,02,56,19.80
2015,06,08,02,57,19.80
2015,06,08,02,58,19.80
2015,06,08,02,59,19.70
2015,06,08,03,00,19.70
2015,06,08,03,01,19.70
2015,06,08,03,02,19.70
2015,06,08,03,03,19.70
2015,06,08,03,04,19.70
2015,06,08,03,05,19.70
2015,06,08,03,06,19.70
2015,06,08,03,07,19.70
2015,06,08,03,08,19.70
2015,06,08,03,09,19.70
2015,06,08,03,10,19.70
2015,06,08,03,11,19.70
2015,06,08,03,12,19.70
2015,06,08,03,13,19.60
2015,06,08,03,14,19.60
2015,06,08,03,15,19.60
2015,06,08,03,16,19.60
2015,06,08,03,17,19.60
2015,06,08,03,18,19.70
2015,06,08,03,19,19.70
2015,06,08,03,20,19.80
2015,06,08,03,21,19.90
2015,06,08,03,22,19.90
2015,06,08,03,23,19.90
2015,06,08,03,24,19.90
2015,06,08,03,25,19.90
2015,06,08,03,26,20.00
2015,06,08,03,27,20.00
2015,06,08,03,28,20.00
2015,06,08,03,29,20.00
2015,06,08,03,30,20.00
2015,06,08,03,31,20.00
2015,06,08,03,32,20.00
2015,06,08,03,33,20.00
2015,06,08,03,34,20.00
2015,06,08,03,35,20.00
2015,06,08,03,36,19.90
2015,06,08,03,37,19.90
2015,06,08,03,38,19.90
2015,06,08,03,39,19.90
2015,06,08,03,40,19.90
2015,06,08,03,41,19.90
2015,06,08,03,42,19.90
2015,06,08,03,43,20.00
2015,06,08,03,44,20.00
2015,06,08,03,45,20.00
2015,06,08,03,46,20.00
2015,06,08,03,47,20.10
2015,06,08,03,48,20.10
2015,06,08,03,49,20.20
2015,06,08,03,50,20.20
2015,06,08,03,51,20.20
2015,06,08,03,52,20.20
2015,06,08,03,53,20.20
2015,06,08,03,54,20.20
2015,06,08,03,55,20.20
2015,06,08,03,56,20.20
2015,06,08,03,57,20.20
2015,06,08,03,58,20.20
2015,06,08,03,59,20.20
2015,06,08,04,00,20.20
2015,06,08,04,01,20.20
2015,06,08,04,02,20.20
2015,06,08,04,03,20.20
2015,06,08,04,04,20.20
2015,06,08,04,05,20.20
2015,06,08,04,06,20.20
2015,06,08,04,07,20.20
2015,06,08,04,08,20.20
2015,06,08,04,09,20.20
2015,06,08,04,10,20.30
2015,06,08,04,11,20.30
2015,06,08,04,12,20.30
2015,06,08,04,13,20.30
2015,06,08,04,14,20.30
2015,06,08,04,15,20.30
2015,06,08,04,16,20.30
2015,06,08,04,17,20.30
2015,06,08,04,18,20.30
2015,06,08,04,19,20.40
2015,06,08,04,20,20.40
2015,06,08,04,21,20.40
2015,06,08,04,22,20.40
2015,06,08,04,23,20.40
2015,06,08,04,24,20.30
2015,06,08,04,25,20.30
2015,06,08,04,26,20.30
2015,06,08,04,27,20.30
2015,06,08,04,28,20.30
2015,06,08,04,29,20.30
2015,06,08,04,30,20.30
2015,06,08,04,31,20.20
2015,06,08,04,32,20.20
2015,06,08,04,33,20.20
2015,06,08,04,34,20.20
2015,06,08,04,35,20.20
2015,06,08,04,36,20.20
2015,06,08,04,37,20.20
2015,06,08,04,38,20.10
2015,06,08,04,39,20.10
2015,06,08,04,40,20.10
2015,06,08,04,41,20.10
2015,06,08,04,42,20.10
2015,06,08,04,43,20.10
2015,06,08,04,44,20.10
2015,06,08,04,45,20.10
2015,06,08,04,46,20.10
2015,06,08,04,47,20.10
2015,06,08,04,48,20.10
2015,06,08,04,49,20.10
2015,06,08,04,50,20.10
2015,06,08,04,51,20.10
2015,06,08,04,52,20.10
2015,06,08,04,53,20.10
2015,06,08,04,54,20.10
2015,06,08,04,55,20.10
2015,06,08,04,56,20.10
2015,06,08,04,57,20.10
2015,06,08,04,58,20.10
2015,06,08,04,59,20.10
2015,06,08,05,00,20.10
2015,06,08,05,01,20.10
2015,06,08,05,02,20.10
2015,06,08,05,03,20.10
2015,06,08,05,04,20.10
2015,06,08,05,05,20.10
2015,06,08,05,06,20.10
2015,06,08,05,07,20.00
2015,06,08,05,08,20.00
2015,06,08,05,09,20.00
2015,06,08,05,10,20.00
2015,06,08,05,11,20.00
2015,06,08,05,12,19.90
2015,06,08,05,13,19.90
2015,06,08,05,14,19.90
2015,06,08,05,15,19.90
2015,06,08,05,16,19.90
2015,06,08,05,17,19.90
2015,06,08,05,18,19.90
2015,06,08,05,19,19.90
2015,06,08,05,20,19.90
2015,06,08,05,21,19.90
2015,06,08,05,22,19.90
2015,06,08,05,23,19.90
2015,06,08,05,24,19.80
2015,06,08,05,25,19.80
2015,06,08,05,26,19.80
2015,06,08,05,27,19.80
2015,06,08,05,28,19.80
2015,06,08,05,29,19.70
2015,06,08,05,30,19.70
2015,06,08,05,31,19.70
2015,06,08,05,32,19.70
2015,06,08,05,33,19.70
2015,06,08,05,34,19.70
2015,06,08,05,35,19.70
2015,06,08,05,36,19.70
2015,06,08,05,37,19.70
2015,06,08,05,38,19.70
2015,06,08,05,39,19.60
2015,06,08,05,40,19.60
2015,06,08,05,41,19.60
2015,06,08,05,42,19.60
2015,06,08,05,43,19.50
2015,06,08,05,44,19.50
2015,06,08,05,45,19.50
2015,06,08,05,46,19.50
2015,06,08,05,47,19.50
2015,06,08,05,48,19.40
2015,06,08,05,49,19.40
2015,06,08,05,50,19.40
2015,06,08,05,51,19.40
2015,06,08,05,52,19.40
2015,06,08,05,53,19.40
2015,06,08,05,54,19.40
2015,06,08,05,55,19.40
2015,06,08,05,56,19.40
2015,06,08,05,57,19.40
2015,06,08,05,58,19.40
2015,06,08,05,59,19.30
2015,06,08,06,00,19.30
2015,06,08,06,01,19.30
2015,06,08,06,02,19.30
2015,06,08,06,03,19.20
2015,06,08,06,04,19.20
2015,06,08,06,05,19.20
2015,06,08,06,06,19.20
2015,06,08,06,07,19.10
2015,06,08,06,08,19.10
2015,06,08,06,09,19.10
2015,06,08,06,10,19.10
2015,06,08,06,11,19.00
2015,06,08,06,12,19.00
2015,06,08,06,13,19.00
2015,06,08,06,14,18.90
2015,06,08,06,15,18.90
2015,06,08,06,16,18.90
2015,06,08,06,17,18.90
2015,06,08,06,18,18.90
2015,06,08,06,19,18.90
2015,06,08,06,20,18.90
2015,06,08,06,21,18.90
2015,06,08,06,22,18.90
2015,06,08,06,23,18.90
2015,06,08,06,24,18.90
2015,06,08,06,25,18.90
2015,06,08,06,26,18.90
2015,06,08,06,27,18.80
2015,06,08,06,28,18.90
2015,06,08,06,29,18.90
2015,06,08,06,30,18.90
2015,06,08,06,31,18.90
2015,06,08,06,32,18.90
2015,06,08,06,33,18.90
2015,06,08,06,34,18.90
2015,06,08,06,35,18.90
2015,06,08,06,36,18.90
2015,06,08,06,37,19.00
2015,06,08,06,38,19.00
2015,06,08,06,39,19.00
2015,06,08,06,40,19.10
2015,06,08,06,41,19.10
2015,06,08,06,42,19.10
2015,06,08,06,43,19.10
2015,06,08,06,44,19.20
2015,06,08,06,45,19.20
2015,06,08,06,46,19.20
2015,06,08,06,47,19.20
2015,06,08,06,48,19.20
2015,06,08,06,49,19.30
2015,06,08,06,50,19.30
2015,06,08,06,51,19.30
2015,06,08,06,52,19.30
2015,06,08,06,53,19.30
2015,06,08,06,54,19.30
2015,06,08,06,55,19.30
2015,06,08,06,56,19.30
2015,06,08,06,57,19.30
2015,06,08,06,58,19.30
2015,06,08,06,59,19.30
2015,06,08,07,00,19.30
2015,06,08,07,01,19.30
2015,06,08,07,02,19.30
2015,06,08,07,03,19.20
2015,06,08,07,04,19.20
2015,06,08,07,05,19.20
2015,06,08,07,06,19.20
2015,06,08,07,07,19.20
2015,06,08,07,08,19.20
2015,06,08,07,09,19.20
2015,06,08,07,10,19.20
2015,06,08,07,11,19.20
2015,06,08,07,12,19.20
2015,06,08,07,13,19.20
2015,06,08,07,14,19.20
2015,06,08,07,15,19.20
2015,06,08,07,16,19.30
2015,06,08,07,17,19.30
2015,06,08,07,18,19.30
2015,06,08,07,19,19.30
2015,06,08,07,20,19.30
2015,06,08,07,21,19.30
2015,06,08,07,22,19.30
2015,06,08,07,23,19.30
2015,06,08,07,24,19.30
2015,06,08,07,25,19.30
2015,06,08,07,26,19.30
2015,06,08,07,27,19.30
2015,06,08,07,28,19.30
2015,06,08,07,29,19.30
2015,06,08,07,30,19.40
2015,06,08,07,31,19.40
2015,06,08,07,32,19.40
2015,06,08,07,33,19.40
2015,06,08,07,34,19.40
2015,06,08,07,35,19.40
2015,06,08,07,36,19.40
2015,06,08,07,37,19.50
2015,06,08,07,38,19.50
2015,06,08,07,39,19.50
2015,06,08,07,40,19.60
2015,06,08,07,41,19.60
2015,06,08,07,42,19.60
2015,06,08,07,43,19.60
2015,06,08,07,44,19.60
2015,06,08,07,45,19.60
2015,06,08,07,46,19.70
2015,06,08,07,47,19.70
2015,06,08,07,48,19.60
2015,06,08,07,49,19.60
2015,06,08,07,50,19.70
2015,06,08,07,51,19.70
2015,06,08,07,52,19.70
2015,06,08,07,53,19.70
2015,06,08,07,54,19.70
2015,06,08,07,55,19.70
2015,06,08,07,56,19.70
2015,06,08,07,57,19.70
2015,06,08,07,58,19.70
2015,06,08,07,59,19.70
2015,06,08,08,00,19.70
2015,06,08,08,01,19.80
2015,06,08,08,02,19.80
2015,06,08,08,03,19.80
2015,06,08,08,04,19.80
2015,06,08,08,05,19.90
2015,06,08,08,06,19.90
2015,06,08,08,07,19.90
2015,06,08,08,08,20.00
2015,06,08,08,09,20.00
2015,06,08,08,10,20.10
2015,06,08,08,11,20.10
2015,06,08,08,12,20.10
2015,06,08,08,13,20.10
2015,06,08,08,14,20.10
2015,06,08,08,15,20.10
2015,06,08,08,16,20.10
2015,06,08,08,17,20.10
2015,06,08,08,18,20.00
2015,06,08,08,19,20.00
2015,06,08,08,20,20.00
2015,06,08,08,21,19.90
2015,06,08,08,22,19.90
2015,06,08,08,23,19.90
2015,06,08,08,24,20.00
2015,06,08,08,25,20.00
2015,06,08,08,26,20.00
2015,06,08,08,27,20.00
2015,06,08,08,28,20.00
2015,06,08,08,29,20.00
2015,06,08,08,30,20.00
2015,06,08,08,31,20.00
2015,06,08,08,32,20.00
2015,06,08,08,33,20.10
2015,06,08,08,34,20.10
2015,06,08,08,35,20.10
2015,06,08,08,36,20.20
2015,06,08,08,37,20.20
2015,06,08,08,38,20.20
2015,06,08,08,39,20.10
2015,06,08,08,40,20.10
2015,06,08,08,41,20.10
2015,06,08,08,42,20.10
2015,06,08,08,43,20.20
2015,06,08,08,44,20.20
2015,06,08,08,45,20.20
2015,06,08,08,46,20.20
2015,06,08,08,47,20.20
2015,06,08,08,48,20.20
2015,06,08,08,49,20.20
2015,06,08,08,50,20.20
2015,06,08,08,51,20.20
2015,06,08,08,52,20.30
2015,06,08,08,53,20.30
2015,06,08,08,54,20.30
2015,06,08,08,55,20.30
2015,06,08,08,56,20.30
2015,06,08,08,57,20.40
2015,06,08,08,58,20.40
2015,06,08,08,59,20.50
2015,06,08,09,00,20.50
2015,06,08,09,01,20.50
2015,06,08,09,02,20.40
2015,06,08,09,03,20.40
2015,06,08,09,04,20.40
2015,06,08,09,05,20.40
2015,06,08,09,06,20.30
2015,06,08,09,07,20.30
2015,06,08,09,08,20.30
2015,06,08,09,09,20.30
2015,06,08,09,10,20.40
2015,06,08,09,11,20.40
2015,06,08,09,12,20.40
2015,06,08,09,13,20.40
2015,06,08,09,14,20.40
2015,06,08,09,15,20.40
2015,06,08,09,16,20.40
2015,06,08,09,17,20.40
2015,06,08,09,18,20.50
2015,06,08,09,19,20.50
2015,06,08,09,20,20.60
2015,06,08,09,21,20.60
2015,06,08,09,22,20.60
2015,06,08,09,23,20.60
2015,06,08,09,24,20.60
2015,06,08,09,25,20.60
2015,06,08,09,26,20.60
2015,06,08,09,27,20.60
2015,06,08,09,28,20.60
2015,06,08,09,29,20.60
2015,06,08,09,30,20.50
2015,06,08,09,31,20.50
2015,06,08,09,32,20.50
2015,06,08,09,33,20.50
2015,06,08,09,34,20.50
2015,06,08,09,35,20.60
2015,06,08,09,36,20.60
2015,06,08,09,37,20.60
2015,06,08,09,38,20.60
2015,06,08,09,39,20.60
2015,06,08,09,40,20.70
2015,06,08,09,41,20.70
2015,06,08,09,42,20.70
2015,06,08,09,43,20.80
2015,06,08,09,44,20.80
2015,06,08,09,45,20.80
2015,06,08,09,46,20.80
2015,06,08,09,47,20.80
2015,06,08,09,48,20.80
2015,06,08,09,49,20.80
2015,06,08,09,50,20.80
2015,06,08,09,51,20.70
2015,06,08,09,52,20.70
2015,06,08,09,53,20.70
2015,06,08,09,54,20.70
2015,06,08,09,55,20.70
2015,06,08,09,56,20.70
2015,06,08,09,57,20.70
2015,06,08,09,58,20.70
2015,06,08,09,59,20.70
2015,06,08,10,00,20.70
2015,06,08,10,01,20.70
2015,06,08,10,02,20.70
2015,06,08,10,03,20.70
2015,06,08,10,04,20.70
2015,06,08,10,05,20.80
2015,06,08,10,06,20.80
2015,06,08,10,07,20.80
2015,06,08,10,08,20.80
2015,06,08,10,09,20.80
2015,06,08,10,10,20.80
2015,06,08,10,11,20.80
2015,06,08,10,12,20.90
2015,06,08,10,13,20.90
2015,06,08,10,14,21.00
2015,06,08,10,15,21.00
2015,06,08,10,16,21.10
2015,06,08,10,17,21.20
2015,06,08,10,18,21.20
2015,06,08,10,19,21.30
2015,06,08,10,20,21.40
2015,06,08,10,21,21.50
2015,06,08,10,22,21.50
2015,06,08,10,23,21.60
2015,06,08,10,24,21.70
2015,06,08,10,25,21.80
2015,06,08,10,26,21.80
2015,06,08,10,27,21.90
2015,06,08,10,28,21.90
2015,06,08,10,29,21.90
2015,06,08,10,30,21.90
2015,06,08,10,31,21.90
2015,06,08,10,32,21.80
2015,06,08,10,33,21.80
2015,06,08,10,34,21.80
2015,06,08,10,35,21.70
2015,06,08,10,36,21.70
2015,06,08,10,37,21.70
2015,06,08,10,38,21.70
2015,06,08,10,39,21.70
2015,06,08,10,40,21.70
2015,06,08,10,41,21.80
2015,06,08,10,42,21.90
2015,06,08,10,43,21.90
2015,06,08,10,44,22.00
2015,06,08,10,45,21.90
2015,06,08,10,46,21.90
2015,06,08,10,47,21.80
2015,06,08,10,48,21.70
2015,06,08,10,49,21.70
2015,06,08,10,50,21.70
2015,06,08,10,51,21.80
2015,06,08,10,52,21.80
2015,06,08,10,53,21.80
2015,06,08,10,54,21.80
2015,06,08,10,55,21.80
2015,06,08,10,56,21.80
2015,06,08,10,57,21.80
2015,06,08,10,58,21.80
2015,06,08,10,59,21.70
2015,06,08,11,00,21.70
2015,06,08,11,01,21.70
2015,06,08,11,02,21.70
2015,06,08,11,03,21.70
2015,06,08,11,04,21.70
2015,06,08,11,05,21.70
2015,06,08,11,06,21.70
2015,06,08,11,07,21.70
2015,06,08,11,08,21.70
2015,06,08,11,09,21.70
2015,06,08,11,10,21.70
2015,06,08,11,11,21.70
2015,06,08,11,12,21.70
2015,06,08,11,13,21.70
2015,06,08,11,14,21.80
2015,06,08,11,15,21.80
2015,06,08,11,16,21.90
2015,06,08,11,17,21.90
2015,06,08,11,18,22.00
2015,06,08,11,19,22.10
2015,06,08,11,20,22.20
2015,06,08,11,21,22.20
2015,06,08,11,22,22.20
2015,06,08,11,23,22.20
2015,06,08,11,24,22.20
2015,06,08,11,25,22.20
2015,06,08,11,26,22.20
2015,06,08,11,27,22.30
2015,06,08,11,28,22.30
2015,06,08,11,29,22.30
2015,06,08,11,30,22.30
2015,06,08,11,31,22.30
2015,06,08,11,32,22.40
2015,06,08,11,33,22.40
2015,06,08,11,34,22.40
2015,06,08,11,35,22.50
2015,06,08,11,36,22.50
2015,06,08,11,37,22.50
2015,06,08,11,38,22.50
2015,06,08,11,39,22.40
2015,06,08,11,40,22.40
2015,06,08,11,41,22.50
2015,06,08,11,42,22.50
2015,06,08,11,43,22.60
2015,06,08,11,44,22.60
2015,06,08,11,45,22.60
2015,06,08,11,46,22.70
2015,06,08,11,47,22.70
2015,06,08,11,48,22.70
2015,06,08,11,49,22.70
2015,06,08,11,50,22.70
2015,06,08,11,51,22.70
2015,06,08,11,52,22.70
2015,06,08,11,53,22.70
2015,06,08,11,54,22.70
2015,06,08,11,55,22.70
2015,06,08,11,56,22.70
2015,06,08,11,57,22.80
2015,06,08,11,58,22.80
2015,06,08,11,59,22.90
2015,06,08,12,00,23.00
2015,06,08,12,01,23.10
2015,06,08,12,02,23.20
2015,06,08,12,03,23.20
2015,06,08,12,04,23.20
2015,06,08,12,05,23.20
2015,06,08,12,06,23.20
2015,06,08,12,07,23.30
2015,06,08,12,08,23.30
2015,06,08,12,09,23.30
2015,06,08,12,10,23.20
2015,06,08,12,11,23.20
2015,06,08,12,12,23.20
2015,06,08,12,13,23.20
2015,06,08,12,14,23.10
2015,06,08,12,15,23.10
2015,06,08,12,16,23.10
2015,06,08,12,17,23.10
2015,06,08,12,18,23.10
2015,06,08,12,19,23.20
2015,06,08,12,20,23.20
2015,06,08,12,21,23.20
2015,06,08,12,22,23.20
2015,06,08,12,23,23.20
2015,06,08,12,24,23.20
2015,06,08,12,25,23.20
2015,06,08,12,26,23.20
2015,06,08,12,27,23.20
2015,06,08,12,28,23.30
2015,06,08,12,29,23.30
2015,06,08,12,30,23.30
2015,06,08,12,31,23.30
2015,06,08,12,32,23.30
2015,06,08,12,33,23.20
2015,06,08,12,34,23.20
2015,06,08,12,35,23.20
2015,06,08,12,36,23.10
2015,06,08,12,37,23.10
2015,06,08,12,38,23.10
2015,06,08,12,39,23.20
2015,06,08,12,40,23.30
2015,06,08,12,41,23.30
2015,06,08,12,42,23.30
2015,06,08,12,43,23.30
2015,06,08,12,44,23.40
2015,06,08,12,45,23.50
2015,06,08,12,46,23.60
2015,06,08,12,47,23.70
2015,06,08,12,48,23.70
2015,06,08,12,49,23.70
2015,06,08,12,50,23.70
2015,06,08,12,51,23.70
2015,06,08,12,52,23.70
2015,06,08,12,53,23.70
2015,06,08,12,54,23.70
2015,06,08,12,55,23.70
2015,06,08,12,56,23.80
2015,06,08,12,57,23.90
2015,06,08,12,58,23.90
2015,06,08,12,59,23.80
2015,06,08,13,00,23.80
2015,06,08,13,01,23.80
2015,06,08,13,02,23.90
2015,06,08,13,03,24.00
2015,06,08,13,04,24.00
2015,06,08,13,05,24.10
2015,06,08,13,06,24.20
2015,06,08,13,07,24.30
2015,06,08,13,08,24.30
2015,06,08,13,09,24.30
2015,06,08,13,10,24.40
2015,06,08,13,11,24.40
2015,06,08,13,12,24.40
2015,06,08,13,13,24.40
2015,06,08,13,14,24.40
2015,06,08,13,15,24.50
2015,06,08,13,16,24.50
2015,06,08,13,17,24.50
2015,06,08,13,18,24.40
2015,06,08,13,19,24.40
2015,06,08,13,20,24.30
2015,06,08,13,21,24.40
2015,06,08,13,22,24.40
2015,06,08,13,23,24.40
2015,06,08,13,24,24.40
2015,06,08,13,25,24.40
2015,06,08,13,26,24.40
2015,06,08,13,27,24.40
2015,06,08,13,28,24.50
2015,06,08,13,29,24.50
2015,06,08,13,30,24.60
2015,06,08,13,31,24.60
2015,06,08,13,32,24.60
2015,06,08,13,33,24.60
2015,06,08,13,34,24.50
2015,06,08,13,35,24.50
2015,06,08,13,36,24.50
2015,06,08,13,37,24.50
2015,06,08,13,38,24.50
2015,06,08,13,39,24.50
2015,06,08,13,40,24.60
2015,06,08,13,41,24.60
2015,06,08,13,42,24.60
2015,06,08,13,43,24.60
2015,06,08,13,44,24.60
2015,06,08,13,45,24.60
2015,06,08,13,46,24.60
2015,06,08,13,47,24.60
2015,06,08,13,48,24.60
2015,06,08,13,49,24.60
2015,06,08,13,50,24.70
2015,06,08,13,51,24.70
2015,06,08,13,52,24.80
2015,06,08,13,53,24.80
2015,06,08,13,54,25.00
2015,06,08,13,55,25.10
2015,06,08,13,56,25.10
2015,06,08,13,57,25.00
2015,06,08,13,58,25.00
2015,06,08,13,59,25.10
2015,06,08,14,00,25.10
2015,06,08,14,01,25.10
2015,06,08,14,02,25.10
2015,06,08,14,03,25.10
2015,06,08,14,04,25.20
2015,06,08,14,05,25.30
2015,06,08,14,06,25.20
2015,06,08,14,07,25.20
2015,06,08,14,08,25.10
2015,06,08,14,09,25.10
2015,06,08,14,10,25.10
2015,06,08,14,11,25.10
2015,06,08,14,12,25.10
2015,06,08,14,13,25.10
2015,06,08,14,14,25.10
2015,06,08,14,15,25.00
2015,06,08,14,16,25.00
2015,06,08,14,17,25.00
2015,06,08,14,18,25.10
2015,06,08,14,19,25.10
2015,06,08,14,20,25.10
2015,06,08,14,21,25.10
2015,06,08,14,22,25.10
2015,06,08,14,23,25.10
2015,06,08,14,24,25.10
2015,06,08,14,25,25.10
2015,06,08,14,26,25.10
2015,06,08,14,27,25.10
2015,06,08,14,28,25.10
2015,06,08,14,29,25.10
2015,06,08,14,30,25.20
2015,06,08,14,31,25.20
2015,06,08,14,32,25.20
2015,06,08,14,33,25.20
2015,06,08,14,34,25.20
2015,06,08,14,35,25.10
2015,06,08,14,36,25.10
2015,06,08,14,37,25.10
2015,06,08,14,38,25.10
2015,06,08,14,39,25.20
2015,06,08,14,40,25.30
2015,06,08,14,41,25.30
2015,06,08,14,42,25.30
2015,06,08,14,43,25.30
2015,06,08,14,44,25.20
2015,06,08,14,45,25.20
2015,06,08,14,46,25.20
2015,06,08,14,47,25.20
2015,06,08,14,48,25.30
2015,06,08,14,49,25.30
2015,06,08,14,50,25.40
2015,06,08,14,51,25.50
2015,06,08,14,52,25.70
2015,06,08,14,53,25.70
2015,06,08,14,54,25.70
2015,06,08,14,55,25.60
2015,06,08,14,56,25.60
2015,06,08,14,57,25.50
2015,06,08,14,58,25.50
2015,06,08,14,59,25.50
2015,06,08,15,00,25.50
2015,06,08,15,01,25.50
2015,06,08,15,02,25.50
2015,06,08,15,03,25.60
2015,06,08,15,04,25.60
2015,06,08,15,05,25.70
2015,06,08,15,06,25.60
2015,06,08,15,07,25.60
2015,06,08,15,08,25.60
2015,06,08,15,09,25.60
2015,06,08,15,10,25.70
2015,06,08,15,11,25.70
2015,06,08,15,12,25.80
2015,06,08,15,13,25.90
2015,06,08,15,14,25.90
2015,06,08,15,15,25.90
2015,06,08,15,16,25.90
2015,06,08,15,17,25.90
2015,06,08,15,18,25.90
2015,06,08,15,19,25.80
2015,06,08,15,20,25.80
2015,06,08,15,21,25.80
2015,06,08,15,22,25.80
2015,06,08,15,23,25.90
2015,06,08,15,24,26.00
2015,06,08,15,25,26.20
2015,06,08,15,26,26.30
2015,06,08,15,27,26.50
2015,06,08,15,28,26.60
2015,06,08,15,29,26.60
2015,06,08,15,30,26.70
2015,06,08,15,31,26.60
2015,06,08,15,32,26.60
2015,06,08,15,33,26.50
2015,06,08,15,34,26.40
2015,06,08,15,35,26.30
2015,06,08,15,36,26.30
2015,06,08,15,37,26.20
2015,06,08,15,38,26.20
2015,06,08,15,39,26.30
2015,06,08,15,40,26.30
2015,06,08,15,41,26.20
2015,06,08,15,42,26.20
2015,06,08,15,43,26.20
2015,06,08,15,44,26.10
2015,06,08,15,45,26.10
2015,06,08,15,46,26.10
2015,06,08,15,47,26.20
2015,06,08,15,48,26.10
2015,06,08,15,49,26.10
2015,06,08,15,50,26.00
2015,06,08,15,51,26.00
2015,06,08,15,52,26.00
2015,06,08,15,53,25.90
2015,06,08,15,54,25.90
2015,06,08,15,55,25.90
2015,06,08,15,56,26.00
2015,06,08,15,57,26.00
2015,06,08,15,58,26.00
2015,06,08,15,59,25.90
2015,06,08,16,00,25.90
2015,06,08,16,01,25.90
2015,06,08,16,02,26.00
2015,06,08,16,03,26.00
2015,06,08,16,04,26.10
2015,06,08,16,05,26.10
2015,06,08,16,06,26.20
2015,06,08,16,07,26.20
2015,06,08,16,08,26.20
2015,06,08,16,09,26.20
2015,06,08,16,10,26.20
2015,06,08,16,11,26.20
2015,06,08,16,12,26.20
2015,06,08,16,13,26.20
2015,06,08,16,14,26.20
2015,06,08,16,15,26.10
2015,06,08,16,16,26.00
2015,06,08,16,17,25.90
2015,06,08,16,18,25.90
2015,06,08,16,19,26.00
2015,06,08,16,20,26.10
2015,06,08,16,21,26.10
2015,06,08,16,22,26.20
2015,06,08,16,23,26.20
2015,06,08,16,24,26.30
2015,06,08,16,25,26.20
2015,06,08,16,26,26.20
2015,06,08,16,27,26.20
2015,06,08,16,28,26.20
2015,06,08,16,29,26.10
2015,06,08,16,30,26.00
2015,06,08,16,31,26.00
2015,06,08,16,32,26.00
2015,06,08,16,33,26.10
2015,06,08,16,34,26.10
2015,06,08,16,35,26.20
2015,06,08,16,36,26.30
2015,06,08,16,37,26.30
2015,06,08,16,38,26.30
2015,06,08,16,39,26.30
2015,06,08,16,40,26.30
2015,06,08,16,41,26.40
2015,06,08,16,42,26.40
2015,06,08,16,43,26.40
2015,06,08,16,44,26.40
2015,06,08,16,45,26.40
2015,06,08,16,46,26.40
2015,06,08,16,47,26.40
2015,06,08,16,48,26.40
2015,06,08,16,49,26.40
2015,06,08,16,50,26.30
2015,06,08,16,51,26.30
2015,06,08,16,52,26.30
2015,06,08,16,53,26.30
2015,06,08,16,54,26.30
2015,06,08,16,55,26.30
2015,06,08,16,56,26.40
2015,06,08,16,57,26.40
2015,06,08,16,58,26.50
2015,06,08,16,59,26.50
2015,06,08,17,00,26.60
2015,06,08,17,01,26.60
2015,06,08,17,02,26.70
2015,06,08,17,03,26.80
2015,06,08,17,04,26.80
2015,06,08,17,05,26.80
2015,06,08,17,06,26.80
2015,06,08,17,07,26.80
2015,06,08,17,08,26.80
2015,06,08,17,09,26.80
2015,06,08,17,10,26.70
2015,06,08,17,11,26.70
2015,06,08,17,12,26.80
2015,06,08,17,13,26.80
2015,06,08,17,14,26.80
2015,06,08,17,15,26.80
2015,06,08,17,16,26.80
2015,06,08,17,17,26.80
2015,06,08,17,18,26.80
2015,06,08,17,19,26.80